Regional Weather Roundup
Issued by NWS Sterling, VA

Home | Current Version | Previous Version | Text Only | Print | Product List | Glossary On
Versions: 1 2 3 4 5 6 7 8 9 10 11 12 13 14 15 16 17 18 19 20 21 22 23 24 25 26 27
000
ASUS41 KLWX 210110
RWRLWX

REGIONAL WEATHER ROUNDUP
NATIONAL WEATHER SERVICE BALTIMORE MD/WASHINGTON DC
800 PM EST FRI JAN 20 2017

Note: "FAIR" indicates few or no clouds below 12,000 feet
with no significant weather and/or obstructions to visibility.
 TC=TEMPERATURE CELSIUS

 * =Non NWS site. Station does not report precipitation (e.g. rain,
    snow, etc.), thunder, or fog.

DCZ001-MDZ009-015-VAZ040>042-051-053>054-210200-
WASHINGTON METRO

CITY           SKY/WX    TMP DP  RH WIND       PRES   REMARKS
WASHINGTON NAT CLOUDY    47  46  97 S3        29.91S
DULLES         CLOUDY    47  44  90 SE5       29.89S FOG
ANDREWS AFB    CLOUDY    45  44  96 CALM      29.89S FOG
FT BELVOIR     CLOUDY    47  44  91 CALM      29.91R
QUANTICO       CLOUDY    46  46 100 CALM      29.93R
COLLEGE PARK*  CLOUDY    45  43  93 CALM      29.91R
LEESBURG*      CLOUDY    48  48 100 S6        29.90R FOG
GAITHERSBURG*  CLOUDY    45  39  81 SE5       29.93S

$$

MDZ006>007-011-014-210200-
BALTIMORE METRO

CITY           SKY/WX    TMP DP  RH WIND       PRES   REMARKS
BWI AIRPORT    CLOUDY    44  44 100 CALM      29.90F
MD SCIENCE CTR   N/A     45  41  86 MISG      29.91S
MARTIN STATE   CLOUDY    43  43 100 CALM      29.93S FOG
ANNAPOLIS      CLOUDY    45  42  89 S5        29.91S FOG
FORT MEADE*    CLOUDY    43  41  93 CALM      29.92F

$$

MDZ012-015-019>023-210200-
MARYLAND EASTERN SHORE

CITY           SKY/WX    TMP DP  RH WIND       PRES   REMARKS
OCEAN CITY     CLOUDY    46  45  96 CALM      29.91F FOG
SALISBURY      CLOUDY    46  44  93 CALM      29.91S FOG
BAY BRIDGE AP* CLOUDY    43  43 100 S3        29.91F FOG
CAMBRIDGE*     CLOUDY    43  43 100 CALM      29.92R
EASTON*        MOCLDY    46  45  93 CALM      29.94F FOG

$$

MDZ017>025-210200-
SOUTHERN MARYLAND

CITY           SKY/WX    TMP DP  RH WIND       PRES   REMARKS
PATUXENT RIVER CLOUDY    45  44  97 CALM      29.93R FOG
ST INIGOES     CLOUDY    45  44  97 CALM      29.93R
LEONARDTOWN*   CLOUDY    45  43  93 SE3       29.94R

$$

MDZ003>005-210200-
NORTH CENTRAL MARYLAND

CITY           SKY/WX    TMP DP  RH WIND       PRES   REMARKS
FREDERICK*     CLOUDY    43  43 100 CALM      29.92F FOG
HAGERSTOWN APT CLOUDY    43  40  89 CALM      29.87S FOG
WESTMINSTER*   FOG       41  41 100 SE3       29.88F VSB 1

$$

MDZ501>502-210200-
WESTERN MARYLAND

CITY           SKY/WX    TMP DP  RH WIND       PRES   REMARKS
OAKLAND*         N/A     45  45 100 S7        29.84R
CUMBERLAND*    CLOUDY    43  43 100 CALM      29.91R

$$

VAZ025>031-210200-
SHENANDOAH VALLEY

CITY           SKY/WX    TMP DP  RH WIND       PRES   REMARKS
WINCHESTER*    CLEAR     37  37 100 CALM      29.88R FOG
FRONT ROYAL*   CLEAR     45  43  93 CALM      29.86R
LURAY*         CLOUDY    45  45 100 CALM      29.86S
NEW MARKET*    CLOUDY    42  41  96 CALM      29.86R
STAUNTON*      CLOUDY    42  42  99 CALM      29.89R FOG
WAYNESBORO*    CLOUDY    45  44  96 CALM      29.88R

$$

WVZ021-048>050-054>055-210200-
EASTERN WEST VIRGINIA PANHANDLE

CITY           SKY/WX    TMP DP  RH WIND       PRES   REMARKS
MARTINSBURG    CLOUDY    41  40  96 N3        29.87S FOG
PETERSBURG*    PTCLDY    42  41  96 CALM      29.88R FOG

$$

VAZ036>039-050-210200-
CENTRAL FOOTHILLS

CITY           SKY/WX    TMP DP  RH WIND       PRES   REMARKS
CHARLOTTESVILL CLOUDY    51  48  89 VRB3      29.88S
CULPEPER*      CLOUDY    50  48  92 CALM      29.91S
ORANGE*          N/A     50  50 100 CALM      29.92R
GORDONSVILLE*  CLOUDY    49  48  97 SW5       29.89F
WARRENTON*     CLOUDY    50  46  84 CALM      29.90R

$$

VAZ055>057-210200-
NORTH AND CENTRAL PIEDMONT

CITY           SKY/WX    TMP DP  RH WIND       PRES   REMARKS
FREDERICKSBRG* CLOUDY    48  48 100 SE3       29.91R FOG
STAFFORD*      CLOUDY    47  47 100 CALM      29.95R FOG

$$

NCZ024-NYZ072-PAZ021-071-VAZ022-071-210200-
OTHER REGIONAL OBSERVATIONS

CITY           SKY/WX    TMP DP  RH WIND       PRES   REMARKS
NEW YORK CITY  CLOUDY    41  39  93 VRB3      29.94F
PHILADELPHIA   LGT RAIN  42  40  92 CALM      29.92F FOG
PITTSBURGH     CLOUDY    54  51  90 S5        29.78R
ROANOKE        CLOUDY    49  48  97 SE5       29.91R
RICHMOND       DRZL/FOG  48  48 100 CALM      29.92R VSB 1/2
RALEIGH        PTCLDY    52  51  97 CALM      29.90R FOG

$$

ANZ530>537-210200-
MARINE OBSERVATIONS

STATION/POSITION TIME  TEMP    WIND        PRES
                       AIR SEA DIR/SP/G
                 (UTC) (F)     (DEG/KT/KT) (MB)
THOMAS PT LIGHT  0100   42 39  190/  6/  6   N/A
BALT KEY BRIDGE  0042   42      CALM  /  1   N/A
COVE POINT       0042   44     210/  7/  8   N/A
LEWISETTA        0042   46 44  200/  5/  6   N/A
SOLOMONS ISLAND  0042   44 41  190/  4/  5   N/A
PINEY POINT      0036          150/  6/  6   N/A

$$





USA.gov is the U.S. government's official web portal to all federal, state and local government web resources and services.